Location: Cardiff
(53.7833°N, 113.6000°W)
Time: 17:52:04
(UTC+00:00)

NOAA 15 - Pass Details

Date: 05 December 2023
Orbit: 796 x 810 km, 98.6° (Epoch: 21 February)

Event Time Altitude Azimuth Distance (km) Brightness Sun altitude
Rises 02:38:51 0° 178° (S) 3,319 7.8 -28.7°
Reaches altitude 10° 02:41:15 10° 183° (S) 2,390 7.1 -29.0°
Maximum altitude 02:46:24 53° 260° (W) 996 5.3 -29.8°
Drops below altitude 10° 02:51:36 10° 337° (NNW) 2,400 7.3 -30.6°
Sets 02:54:01 0° 342° (NNW) 3,333 8.1 -30.9°
